Location: Seven Kings
(51.5667°N, 0.1000°E)
Time: 20:00:03
(UTC+00:00)

X-37B - Pass Details

Date: 21 June 2021
Orbit: 383 x 392 km, 45.0° (Epoch: 01 July)

Event Time Altitude Azimuth Distance (km) Brightness Sun altitude
Exits shadow 02:37:48 - 248° (WSW) 1,627 3.2 -7.5°
Reaches altitude 10° 02:38:35 10° 239° (WSW) 1,405 2.8 -7.5°
Maximum altitude 02:40:32 15° 200° (SSW) 1,128 2.3 -7.3°
Drops below altitude 10° 02:42:30 10° 162° (SSE) 1,405 3.1 -7.1°
Sets 02:45:08 0° 138° (SE) 2,258 4.3 -6.9°
